Tracking 30995 objects as of 5-Jul-2025
HD Live streaming from Space Station
objects crossing your sky now

COSMOS 970 DEB

Track COSMOS 970 DEB now!
10-day predictions


NORAD ID: 10885
Int'l Code: 1977-121AG
Perigee: 956.7 km
Apogee: 1,058.1 km
Inclination: 65.8 °
Period: 105.1 minutes
Semi major axis: 7378 km
RCS: 0.0086 m2 (small)
Launch date: December 21, 1977
Source: Commonwealth of Independent States (former USSR) (CIS)
Launch site: TYURATAM MISSILE AND SPACE COMPLEX (TTMTR)

Note: This is SATELLITE DEBRIS
Your satellite tracking list
HELLAS SAT 1 (DFS 3)
Track 1 satellite(s)




NASA's NSSDC Master Catalog

Two Line Element Set (TLE):
1 10885U 77121AG  25186.01568508  .00000492  00000-0  64170-3 0  9991
2 10885  65.7894 193.6616 0068719 208.4159 182.9954 13.69813991359987
Source of the keplerian elements: AFSPC